Regional Weather Roundup
Issued by NWS Sterling, VA

Home | Current Version | Previous Version | Graphics & Text | Print | Product List | Glossary On
Versions: 1 2 3 4 5 6 7 8 9 10 11 12 13 14 15 16 17 18 19 20 21 22 23 24 25 26 27 28 29 30 31 32 33 34 35 36 37 38 39 40 41 42 43 44 45 46 47 48 49 50
190
ASUS41 KLWX 041210
RWRLWX

REGIONAL WEATHER ROUNDUP
NATIONAL WEATHER SERVICE BALTIMORE MD/WASHINGTON DC
800 AM EDT WED MAY 04 2016

Note: "FAIR" indicates few or no clouds below 12,000 feet
with no significant weather and/or obstructions to visibility.
 TC=TEMPERATURE CELSIUS

 * =Non NWS site. Station does not report precipitation (e.g. rain,
    snow, etc.), thunder, or fog.

DCZ001-MDZ009-015-VAZ040>042-051-053>054-041300-
WASHINGTON METRO

CITY           SKY/WX    TMP DP  RH WIND       PRES   REMARKS
WASHINGTON NAT CLOUDY    54  51  90 E10       29.73F
DULLES         FOG       54  53  97 NE5       29.73S VSB 1
ANDREWS AFB    CLOUDY    54  50  87 NE6       29.72S
FT BELVOIR     CLOUDY    54  53  94 VRB3      29.73S
QUANTICO       CLOUDY    57  54  89 E9        29.73S
COLLEGE PARK*  CLOUDY    52  48  87 E5        29.74S
LEESBURG*      CLOUDY    55  55 100 E5        29.74S FOG
MANASSAS*      CLOUDY    55  55 100 CALM      29.73S
GAITHERSBURG*  CLOUDY    52  48  87 E3        29.77F

$$

MDZ006>007-011-014-041300-
BALTIMORE METRO

CITY           SKY/WX    TMP DP  RH WIND       PRES   REMARKS
BWI AIRPORT    CLOUDY    53  49  86 E9        29.74R
MD SCIENCE CTR   N/A     54  49  83 MISG      29.76R
MARTIN STATE   PTSUNNY   54  52  94 NE8       29.76F
ANNAPOLIS      CLOUDY    53  50  89 E10       29.74S
FORT MEADE*    CLOUDY    52  48  87 NE5       29.76S

$$

MDZ012-015-019>023-041300-
MARYLAND EASTERN SHORE

CITY           SKY/WX    TMP DP  RH WIND       PRES   REMARKS
OCEAN CITY     LGT RAIN  51  50  96 NE13      29.71F FOG
SALISBURY      CLOUDY    51  51 100 NE8       29.71F
CAMBRIDGE*     CLOUDY    50  50 100 NE3       29.72F
EASTON*        CLOUDY   N/A N/A N/A E8        29.76F FOG

$$

MDZ017>025-041300-
SOUTHERN MARYLAND

CITY           SKY/WX    TMP DP  RH WIND       PRES   REMARKS
PATUXENT RIVER DRIZZLE   53  50  89 NE8       29.72F FOG
ST INIGOES     CLOUDY    53  51  93 NE7       29.71F
LEONARDTOWN*   CLOUDY    52  50  93 NE3       29.74S

$$

MDZ003>005-041300-
NORTH CENTRAL MARYLAND

CITY           SKY/WX    TMP DP  RH WIND       PRES   REMARKS
FREDERICK*     CLOUDY    54  54 100 E5        29.77R FOG
HAGERSTOWN APT CLOUDY    56  53  90 E5        29.72S
WESTMINSTER*   DRIZZLE   52  43  71 CALM      29.75R

$$

MDZ501>502-041300-
WESTERN MARYLAND

CITY           SKY/WX    TMP DP  RH WIND       PRES   REMARKS
OAKLAND*       CLOUDY    45  45 100 S5        29.72S FOG
CUMBERLAND*    MOSUNNY   52  50  93 CALM      29.77S

$$

VAZ025>031-041300-
SHENANDOAH VALLEY

CITY           SKY/WX    TMP DP  RH WIND       PRES   REMARKS
WINCHESTER*    FAIR      54  52  94 CALM      29.72S FOG
FRONT ROYAL*   CLOUDY    52  52 100 CALM      29.72R VSB<1/4
LURAY*         FOG       54  54 100 CALM      29.73S VSB 1/2
NEW MARKET*    FAIR      53  52  97 CALM      29.72S
STAUNTON*      FAIR      54  52  93 CALM      29.74F
WAYNESBORO*    FAIR      53  52  96 CALM      29.73S

$$

WVZ021-048>050-054>055-041300-
EASTERN WEST VIRGINIA PANHANDLE

CITY           SKY/WX    TMP DP  RH WIND       PRES   REMARKS
MARTINSBURG    PTSUNNY   54  54 100 CALM      29.72S FOG
PETERSBURG*    CLOUDY    51  50  96 CALM      29.74S

$$

VAZ036>039-050-041300-
CENTRAL FOOTHILLS

CITY           SKY/WX    TMP DP  RH WIND       PRES   REMARKS
CHARLOTTESVILL CLOUDY    59  55  87 N3        29.72S FOG
CULPEPER*      CLOUDY    57  57  99 N3        29.73F FOG
ORANGE*        CLOUDY    57  55  94 CALM      29.73F FOG
GORDONSVILLE*  CLOUDY    57  55  94 NE5       29.72R
WARRENTON*     FAIR      57  52  82 CALM      29.72S HAZE

$$

VAZ055>057-041300-
NORTH AND CENTRAL PIEDMONT

CITY           SKY/WX    TMP DP  RH WIND       PRES   REMARKS
FREDERICKSBRG* CLOUDY    57  57 100 NE6       29.71S FOG
STAFFORD*      DRIZZLE   55  54  94 NE7       29.76S

$$

NCZ024-NYZ072-PAZ021-071-VAZ022-071-041300-
OTHER REGIONAL OBSERVATIONS

CITY           SKY/WX    TMP DP  RH WIND       PRES   REMARKS
NEW YORK CITY  CLOUDY    50  45  83 E7        29.83S
PHILADELPHIA   CLOUDY    52  47  83 E9        29.77F
PITTSBURGH     CLOUDY    51  44  77 CALM      29.71F
ROANOKE        CLOUDY    56  49  77 CALM      29.76R
RICHMOND       CLOUDY    56  55  97 NE7       29.71S
RALEIGH        PTSUNNY   59  57  93 VRB5      29.72S

$$

ANZ530>537-041300-
MARINE OBSERVATIONS

STATION/POSITION TIME  TEMP    WIND        PRES
                       AIR SEA DIR/SP/G
                 (UTC) (F)     (DEG/KT/KT) (MB)
THOMAS PT LIGHT  1200   52 58   60/  8/  9 1008.1F
BALT KEY BRIDGE  1100   53      40/  9/ 10 1007.1S
COVE POINT       1100   51      90/  7/ 12 1007.3F
LEWISETTA        1100   54 63   80/ 11/ 16 1006.1F
SOLOMONS ISLAND  1100   53 61   80/ 10/ 12   N/A
PINEY POINT      1100           70/  5/  8   N/A

$$





USA.gov is the U.S. government's official web portal to all federal, state and local government web resources and services.